KO4T-4 Weather Reports


time (UTC)temp
C
wind
direction
speed
KPH
gust
KPH
rain 1hr
cm
rain 24hr
cm
rain mn
cm
humidity
%
barometer
mb
20260504232002 23 220 3.2 8.0 0.00 0.00 0.00 34 1013.1
20260504231502 23 215 3.2 9.7 0.00 0.00 0.00 34 1013.2
20260504231002 23 205 3.2 14.5 0.00 0.00 0.00 34 1013.0
20260504230502 23 200 4.8 14.5 0.00 0.00 0.00 33 1013.1
20260504230002 23 213 3.2 19.3 0.00 0.00 0.00 33 1013.0
20260504225502 24 209 3.2 19.3 0.00 0.00 0.00 34 1013.0
20260504225002 24 187 3.2 12.9 0.00 0.00 0.00 34 1013.0
20260504224502 24 175 3.2 11.3 0.00 0.00 0.00 35 1012.9
20260504224002 24 166 3.2 11.3 0.00 0.00 0.00 34 1012.9
20260504223502 24 177 4.8 11.3 0.00 0.00 0.00 35 1013.0
20260504223002 24 189 4.8 22.5 0.00 0.00 0.00 34 1013.0
20260504222502 24 188 4.8 22.5 0.00 0.00 0.00 34 1013.0
20260504222002 25 188 4.8 17.7 0.00 0.00 0.00 34 1012.9
20260504221502 25 196 4.8 17.7 0.00 0.00 0.00 33 1012.9
20260504221002 25 203 4.8 16.1 0.00 0.00 0.00 35 1012.8
20260504220502 25 197 4.8 14.5 0.00 0.00 0.00 34 1012.9
20260504220002 25 191 4.8 12.9 0.00 0.00 0.00 34 1012.8
20260504215502 25 197 4.8 16.1 0.00 0.00 0.00 33 1012.8
20260504215002 25 191 4.8 16.1 0.00 0.00 0.00 32 1012.9
20260504214502 25 192 3.2 11.3 0.00 0.00 0.00 31 1012.9
20260504214002 26 200 3.2 9.7 0.00 0.00 0.00 31 1012.9
20260504213502 26 187 3.2 12.9 0.00 0.00 0.00 31 1012.9
20260504213002 26 186 4.8 12.9 0.00 0.00 0.00 30 1012.9
20260504212502 25 190 3.2 14.5 0.00 0.00 0.00 32 1012.9
20260504212003 26 192 4.8 14.5 0.00 0.00 0.00 31 1012.9
20260504211502 25 192 4.8 14.5 0.00 0.00 0.00 31 1012.9
20260504211003 26 177 3.2 14.5 0.00 0.00 0.00 31 1012.9
20260504210502 26 187 3.2 17.7 0.00 0.00 0.00 32 1012.9
20260504210002 26 207 3.2 17.7 0.00 0.00 0.00 32 1012.8
20260504205502 26 208 3.2 12.9 0.00 0.00 0.00 31 1012.9
20260504205002 26 200 3.2 11.3 0.00 0.00 0.00 31 1012.9
20260504204502 26 198 3.2 14.5 0.00 0.00 0.00 31 1013.0
20260504204002 26 197 3.2 14.5 0.00 0.00 0.00 30 1013.0
20260504203502 26 193 3.2 11.3 0.00 0.00 0.00 30 1013.1
20260504203002 26 179 1.6 9.7 0.00 0.00 0.00 30 1013.1
20260504202502 27 173 1.6 11.3 0.00 0.00 0.00 31 1013.1
20260504202002 27 197 1.6 12.9 0.00 0.00 0.00 29 1013.2
20260504201502 26 194 3.2 12.9 0.00 0.00 0.00 31 1013.3
20260504201002 26 175 3.2 8.0 0.00 0.00 0.00 30 1013.3
20260504200502 26 181 1.6 14.5 0.00 0.00 0.00 33 1013.3
20260504200002 26 185 1.6 14.5 0.00 0.00 0.00 34 1013.5
20260504195501 26 194 3.2 11.3 0.00 0.00 0.00 32 1013.4
20260504195002 26 209 4.8 11.3 0.00 0.00 0.00 34 1013.6
20260504194502 26 195 3.2 11.3 0.00 0.00 0.00 33 1013.6
20260504194002 26 168 3.2 11.3 0.00 0.00 0.00 31 1013.7
20260504193502 26 273 3.2 9.7 0.00 0.00 0.00 33 1013.7
20260504193002 25 273 3.2 9.7 0.00 0.00 0.00 32 1013.7
20260504192502 26 205 3.2 14.5 0.00 0.00 0.00 34 1013.8
20260504192002 26 194 3.2 14.5 0.00 0.00 0.00 34 1013.9
20260504191502 26 159 3.2 11.3 0.00 0.00 0.00 33 1013.9
20260504191002 26 184 3.2 9.7 0.00 0.00 0.00 35 1014.0
20260504190502 25 193 3.2 11.3 0.00 0.00 0.00 35 1014.0
20260504190002 25 185 3.2 11.3 0.00 0.00 0.00 35 1014.0
20260504185502 25 187 1.6 11.3 0.00 0.00 0.00 31 1014.1
20260504185002 25 186 3.2 8.0 0.00 0.00 0.00 35 1014.1
20260504184502 25 240 3.2 9.7 0.00 0.00 0.00 38 1014.1
20260504184002 24 255 3.2 9.7 0.00 0.00 0.00 35 1014.2
20260504183502 24 312 3.2 8.0 0.00 0.00 0.00 36 1014.3
20260504183002 23 322 3.2 9.7 0.00 0.00 0.00 37 1014.4
20260504182502 23 290 3.2 9.7 0.00 0.00 0.00 35 1014.5
20260504182001 23 297 3.2 9.7 0.00 0.00 0.00 36 1014.5
20260504181502 23 302 3.2 9.7 0.00 0.00 0.00 38 1014.5
20260504181002 23 306 3.2 11.3 0.00 0.00 0.00 38 1014.6
20260504180501 23 309 3.2 11.3 0.00 0.00 0.00 37 1014.6
20260504180002 23 291 4.8 9.7 0.00 0.00 0.00 38 1014.7
20260504175502 23 275 4.8 9.7 0.00 0.00 0.00 39 1014.7
20260504175002 23 331 4.8 9.7 0.00 0.00 0.00 39 1014.7
20260504174502 23 334 3.2 9.7 0.00 0.00 0.00 36 1014.7
20260504174002 23 327 3.2 8.0 0.00 0.00 0.00 34 1014.7
20260504173501 23 259 3.2 8.0 0.00 0.00 0.00 36 1014.7
20260504173002 24 235 1.6 8.0 0.00 0.00 0.00 34 1014.7
20260504172501 24 169 1.6 6.4 0.00 0.00 0.00 38 1014.8
20260504172002 23 256 1.6 6.4 0.00 0.00 0.00 35 1014.7
20260504171502 23 283 1.6 6.4 0.00 0.00 0.00 34 1014.8
20260504171002 23 264 3.2 8.0 0.00 0.00 0.00 39 1015.0
20260504170502 23 260 3.2 8.0 0.00 0.00 0.00 39 1015.1
20260504151002 19 282 1.6 6.4 0.00 0.00 0.00 43 1016.8
20260504150501 19 275 1.6 8.0 0.00 0.00 0.00 46 1017.0
20260504141001 16 287 1.6 6.4 0.00 0.00 0.00 53 1016.8
20260504140502 16 312 1.6 6.4 0.00 0.00 0.00 58 1016.8
20260504130501 13 0 0.0 0.0 0.00 0.00 0.00 71 1016.3
20260504110502 4 0 0.0 0.0 0.00 0.00 0.00 95 1015.6
20260504100503 3 0 0.0 0.0 0.00 0.00 0.00 94 1015.7
20260504082004 5 0 0.0 0.0 0.00 0.00 0.00 92 1015.6
20260504081504 5 0 0.0 0.0 0.00 0.00 0.00 92 1015.7
20260504081003 5 0 0.0 0.0 0.00 0.00 0.00 92 1015.6
20260504080504 5 0 0.0 0.0 0.00 0.00 0.00 92 1015.6
20260504050503 8 102 0.0 1.6 0.00 0.00 0.00 82 1016.0
20260504050004 8 0 0.0 0.0 0.00 0.00 0.00 81 1015.9
20260504045503 8 0 0.0 0.0 0.00 0.00 0.00 80 1016.0
20260504045004 8 0 0.0 0.0 0.00 0.00 0.00 80 1016.1
20260504044503 8 0 0.0 0.0 0.00 0.00 0.00 79 1016.0
20260504044003 8 0 0.0 0.0 0.00 0.00 0.00 78 1015.9
20260504043503 9 0 0.0 0.0 0.00 0.00 0.00 78 1015.9
20260504043004 9 0 0.0 0.0 0.00 0.00 0.00 78 1016.0
20260504042503 9 0 0.0 0.0 0.00 0.00 0.00 78 1015.9
20260504042003 9 0 0.0 0.0 0.00 0.00 0.00 78 1015.7
20260504041504 9 0 0.0 0.0 0.00 0.00 0.00 79 1015.7
20260504041004 9 102 0.0 1.6 0.00 0.00 0.00 78 1015.5
20260504040503 9 102 0.0 1.6 0.00 0.00 0.00 78 1015.6
20260504040005 9 0 0.0 0.0 0.00 0.00 0.00 78 1015.6
20260504035504 9 0 0.0 0.0 0.00 0.00 0.00 78 1015.6
20260504035003 9 101 0.0 1.6 0.00 0.00 0.00 78 1015.7
20260504034503 9 102 0.0 1.6 0.00 0.00 0.00 77 1015.7
20260504034004 10 103 0.0 1.6 0.00 0.00 0.00 77 1015.7
20260504033504 9 103 0.0 1.6 0.00 0.00 0.00 77 1015.7
20260504033003 10 103 0.0 1.6 0.00 0.00 0.00 76 1015.8
20260504032504 10 102 0.0 1.6 0.00 0.00 0.00 76 1015.8
20260504032003 10 96 0.0 3.2 0.00 0.00 0.00 76 1015.8
20260504031503 10 96 0.0 3.2 0.00 0.00 0.00 76 1015.9
20260504031004 10 95 0.0 1.6 0.00 0.00 0.00 75 1015.8
20260504030503 10 95 0.0 1.6 0.00 0.00 0.00 74 1015.8
20260504030003 10 95 0.0 1.6 0.00 0.00 0.00 74 1015.8
20260504025504 10 95 0.0 1.6 0.00 0.00 0.00 73 1015.9
20260504025003 10 0 0.0 0.0 0.00 0.00 0.00 72 1015.9
20260504024503 11 0 0.0 0.0 0.00 0.00 0.00 72 1015.9
20260504024004 11 0 0.0 0.0 0.00 0.00 0.00 71 1015.8
20260504023503 11 0 0.0 0.0 0.00 0.00 0.00 69 1015.8
20260504023003 11 0 0.0 0.0 0.00 0.00 0.00 68 1015.8
20260504022504 11 0 0.0 0.0 0.00 0.00 0.00 67 1015.7
20260504022004 12 0 0.0 0.0 0.00 0.00 0.00 67 1015.7
20260504021503 12 0 0.0 0.0 0.00 0.00 0.00 65 1015.6
20260504021004 12 0 0.0 0.0 0.00 0.00 0.00 65 1015.5
20260504020503 12 39 0.0 1.6 0.00 0.00 0.00 65 1015.5
20260504020003 12 82 0.0 3.2 0.00 0.00 0.00 65 1015.4
20260504015504 12 84 0.0 3.2 0.00 0.00 0.00 64 1015.3
20260504015004 13 75 0.0 3.2 0.00 0.00 0.00 61 1015.2
20260504014503 13 106 0.0 1.6 0.00 0.00 0.00 60 1015.1
20260504014004 13 116 0.0 1.6 0.00 0.00 0.00 59 1014.9
20260504013503 13 110 0.0 1.6 0.00 0.00 0.00 57 1014.9
20260504013004 13 0 0.0 0.0 0.00 0.00 0.00 57 1014.8
20260504012504 13 0 0.0 0.0 0.00 0.00 0.00 56 1014.8
20260504012003 14 129 0.0 1.6 0.00 0.00 0.00 55 1014.9
20260504011504 14 129 0.0 1.6 0.00 0.00 0.00 54 1014.8
20260504011004 14 0 0.0 0.0 0.00 0.00 0.00 54 1014.7
20260504010503 15 220 0.0 1.6 0.00 0.00 0.00 54 1014.8
20260504010004 15 222 0.0 1.6 0.00 0.00 0.00 52 1014.7
20260504005504 15 223 0.0 1.6 0.00 0.00 0.00 51 1014.7
20260504005004 15 122 0.0 1.6 0.00 0.00 0.00 52 1014.5
20260504004504 15 122 0.0 1.6 0.00 0.00 0.00 51 1014.5
20260504004004 15 0 0.0 0.0 0.00 0.00 0.00 52 1014.5
20260504003503 15 0 0.0 0.0 0.00 0.00 0.00 51 1014.5
20260504003004 15 0 0.0 0.0 0.00 0.00 0.00 50 1014.4
20260504002503 16 0 0.0 0.0 0.00 0.00 0.00 49 1014.5
20260504002003 16 0 0.0 0.0 0.00 0.00 0.00 48 1014.4
20260504001504 16 0 0.0 0.0 0.00 0.00 0.00 47 1014.4
20260504001003 17 0 0.0 0.0 0.00 0.00 0.00 46 1014.3
20260504000504 17 199 0.0 3.2 0.00 0.00 0.00 43 1014.4
20260504000004 18 183 0.0 4.8 0.00 0.00 0.00 42 1014.3
20260503235503 18 183 1.6 4.8 0.00 0.00 0.00 41 1014.2
20260503235004 19 202 1.6 6.4 0.00 0.00 0.00 39 1014.2
20260503234503 20 199 0.0 6.4 0.00 0.00 0.00 38 1014.2
20260503234004 20 187 0.0 3.2 0.00 0.00 0.00 37 1014.2
20260503233503 20 165 0.0 3.2 0.00 0.00 0.00 36 1014.2
20260503233004 20 150 0.0 4.8 0.00 0.00 0.00 35 1014.2
20260503232503 20 169 0.0 4.8 0.00 0.00 0.00 35 1014.2